Weather in Sumkino

Russia / Tyumen Oblast     58°06′31″N   68°19′30″E
temp.,
°C
wind,
m/s
gust,
m/s
humid.,
%
clouds,
%
prec.,
mm/h
press.,
hPa
HPBL,
m
15 may, sat
sat1523:00+19sw310516 0.0 1018179
02:00+17wsw38585 0.0 1018145
05:00+16wsw256230 0.0 101884
08:00+22w354983 0.0 1018333
11:00+28w47335 0.0 10181647
14:00+30w57263 0.0 10163120
17:00+29wsw58274 0.0 10131809
20:00+19sse3664100 2.1 1013111
16 may, sun
sun1623:00+16nne2489100 3.9 101692
02:00+16w288423 0.1 1015171
05:00+16wsw3108356 0.1 1014243
08:00+22w4105686 0.1 1014601
11:00+25nw584899 0.2 10141666
14:00+24nnw694968 0.0 10161766
17:00+25nnw584030 0.0 10171890
20:00+21ene235616 0.0 101755
17 may, mon
mon1723:00+17se396893 0.0 1016202
02:00+17s4137199 0.0 1015361
05:00+16ssw397598 0.0 1015193
08:00+24w4742100 0.0 1014389
11:00+28w5932100 0.0 10141436
14:00+30wnw61124100 0.0 10133990
17:00+27sw71134100 0.1 10112100
20:00+18wnw3106699 0.9 1014600
18 may, tue
tue1823:00+16w3107493 1.1 1013316
02:00+14w2586100 0.0 1013113
05:00+14w2787100 0.0 1013171
08:00+20nw48595 0.0 1013688
11:00+24nw59441 0.0 10132182
14:00+24nnw69395 0.0 10132113
17:00+22n574711 0.1 10141716
20:00+17nne4665100 0.0 1016583
19 may, wed
wed1923:00+13nne3778100 0.0 1018639
02:00+12nne4668100 0.0 10191092
05:00+10nne38765 0.0 1021427
08:00+14nne465141 0.0 10231125
11:00+17nne343643 0.0 10231597
14:00+19n343320 0.0 10231797
17:00+20n333323 0.0 10231751
20:00+16ne124834 0.0 102411